Location: Ay?beleni
(36.6500°N, 30.3000°E)
Time: 08:42:22
(UTC+00:00)

Cosmos 1943 Rocket - Pass Details

Date: 09 April 2020
Orbit: 811 x 844 km, 71.0° (Epoch: 31 May)

Event Time Altitude Azimuth Distance (km) Brightness Sun altitude
Rises 16:46:30 0° 335° (NNW) 3,359 5.9 -4.4°
Reaches altitude 10° 16:48:56 10° 333° (NNW) 2,427 5.2 -4.9°
Maximum altitude 16:54:27 70° 252° (WSW) 883 2.6 -6.0°
Drops below altitude 10° 17:00:00 10° 169° (S) 2,435 4.3 -7.0°
Sets 17:02:26 0° 167° (SSE) 3,370 5.0 -7.5°
